Time,TemperatureF,DewpointF,PressureIn,WindDirection,WindDirectionDegrees,WindSpeedMPH,WindSpeedGustMPH,Humidity,HourlyPrecipIn,Conditions,Clouds,dailyrainin,SoftwareType,DateUTC
2013-02-25 00:00:00,33.8,12.7,30.12,NW,315,5.0,8.0,41,-99.99,,,0.21,meteohub,2013-02-25 05:00:00,
2013-02-25 00:01:00,33.8,12.7,30.12,West,270,5.0,8.0,41,-99.99,,,0.21,meteohub,2013-02-25 05:01:00,
2013-02-25 00:06:00,34.0,12.7,30.12,NW,315,4.0,7.0,41,-99.99,,,0.21,meteohub,2013-02-25 05:06:00,
2013-02-25 00:11:00,33.8,12.7,30.12,NW,315,7.0,7.0,41,-99.99,,,0.21,meteohub,2013-02-25 05:11:00,
2013-02-25 00:16:00,33.4,13.5,30.12,NW,315,6.0,8.0,43,-99.99,,,0.21,meteohub,2013-02-25 05:16:00,
2013-02-25 00:21:00,33.3,13.3,30.12,NW,315,6.0,9.0,43,-99.99,,,0.21,meteohub,2013-02-25 05:21:00,
2013-02-25 00:26:00,33.1,13.1,30.13,NW,315,4.0,9.0,43,-99.99,,,0.21,meteohub,2013-02-25 05:26:00,
2013-02-25 00:31:00,32.7,12.7,30.13,NNE,22,3.0,9.0,43,-99.99,,,0.21,meteohub,2013-02-25 05:31:00,
2013-02-25 00:36:00,32.0,13.1,30.14,NW,315,4.0,6.0,45,-99.99,,,0.21,meteohub,2013-02-25 05:36:00,
2013-02-25 00:41:00,31.1,13.3,30.14,NW,315,5.0,9.0,47,-99.99,,,0.21,meteohub,2013-02-25 05:41:00,
2013-02-25 00:46:00,30.6,13.6,30.15,WNW,292,3.0,9.0,49,-99.99,,,0.21,meteohub,2013-02-25 05:46:00,
2013-02-25 00:51:00,30.2,15.1,30.15,WNW,292,6.0,10.0,53,-99.99,,,0.21,meteohub,2013-02-25 05:51:00,
2013-02-25 00:56:00,30.0,14.9,30.15,WNW,292,6.0,10.0,53,-99.99,,,0.21,meteohub,2013-02-25 05:56:00,
2013-02-25 01:01:00,29.8,14.9,30.12,WNW,292,6.0,10.0,53,-99.99,,,0.21,meteohub,2013-02-25 06:01:00,
2013-02-25 01:06:00,29.7,14.7,30.12,NW,315,4.0,8.0,53,-99.99,,,0.21,meteohub,2013-02-25 06:06:00,
2013-02-25 01:11:00,30.0,14.5,30.12,WNW,292,4.0,8.0,52,-99.99,,,0.21,meteohub,2013-02-25 06:11:00,
2013-02-25 01:16:00,30.0,14.5,30.12,WNW,292,8.0,8.0,52,-99.99,,,0.21,meteohub,2013-02-25 06:16:00,
2013-02-25 01:21:00,29.8,14.9,30.12,NW,315,6.0,8.0,53,-99.99,,,0.21,meteohub,2013-02-25 06:21:00,
2013-02-25 01:26:00,29.8,14.4,30.12,NNW,338,5.0,8.0,52,-99.99,,,0.21,meteohub,2013-02-25 06:26:00,
2013-02-25 01:31:00,29.7,14.7,30.16,NW,315,6.0,8.0,53,-99.99,,,0.21,meteohub,2013-02-25 06:31:00,
2013-02-25 01:36:00,29.7,14.2,30.16,WNW,292,4.0,8.0,52,-99.99,,,0.21,meteohub,2013-02-25 06:36:00,
2013-02-25 01:41:00,29.5,14.5,30.16,WNW,292,6.0,7.0,53,-99.99,,,0.21,meteohub,2013-02-25 06:41:00,
2013-02-25 01:46:00,29.5,14.5,30.16,WNW,292,6.0,7.0,53,-99.99,,,0.21,meteohub,2013-02-25 06:46:00,
2013-02-25 01:51:00,29.3,14.4,30.16,NW,315,6.0,7.0,53,-99.99,,,0.21,meteohub,2013-02-25 06:51:00,
2013-02-25 01:57:00,29.3,14.4,30.16,NW,315,6.0,7.0,53,-99.99,,,0.21,meteohub,2013-02-25 06:57:00,
2013-02-25 02:02:00,29.3,14.7,30.16,NW,315,6.0,8.0,54,-99.99,,,0.21,meteohub,2013-02-25 07:02:00,
2013-02-25 02:07:00,29.3,14.7,30.16,WNW,292,8.0,8.0,54,-99.99,,,0.21,meteohub,2013-02-25 07:07:00,
2013-02-25 02:12:00,29.3,14.4,30.16,NW,315,7.0,9.0,53,-99.99,,,0.21,meteohub,2013-02-25 07:12:00,
2013-02-25 02:17:00,29.3,14.7,30.16,NW,315,5.0,9.0,54,-99.99,,,0.21,meteohub,2013-02-25 07:17:00,
2013-02-25 02:22:00,29.3,14.7,30.16,NW,315,6.0,9.0,54,-99.99,,,0.21,meteohub,2013-02-25 07:22:00,
2013-02-25 02:27:00,29.3,14.7,30.16,NW,315,6.0,9.0,54,-99.99,,,0.21,meteohub,2013-02-25 07:27:00,
2013-02-25 02:32:00,29.3,14.7,30.16,NW,315,6.0,9.0,54,-99.99,,,0.21,meteohub,2013-02-25 07:32:00,
2013-02-25 02:37:00,29.1,14.5,30.16,NW,315,6.0,8.0,54,-99.99,,,0.21,meteohub,2013-02-25 07:37:00,
2013-02-25 02:42:00,29.1,14.5,30.16,WNW,292,5.0,8.0,54,-99.99,,,0.21,meteohub,2013-02-25 07:42:00,
2013-02-25 02:47:00,29.3,14.7,30.16,NW,315,6.0,8.0,54,-99.99,,,0.21,meteohub,2013-02-25 07:47:00,
2013-02-25 02:52:00,29.5,14.5,30.16,NW,315,5.0,8.0,53,-99.99,,,0.21,meteohub,2013-02-25 07:52:00,
2013-02-25 02:57:00,29.5,14.5,30.16,NNW,338,6.0,7.0,53,-99.99,,,0.21,meteohub,2013-02-25 07:57:00,
2013-02-25 03:02:00,29.7,14.7,30.16,NW,315,6.0,7.0,53,-99.99,,,0.21,meteohub,2013-02-25 08:02:00,
2013-02-25 03:07:00,29.7,14.7,30.16,NW,315,4.0,7.0,53,-99.99,,,0.21,meteohub,2013-02-25 08:07:00,
2013-02-25 03:12:00,29.7,14.2,30.16,NW,315,6.0,7.0,52,-99.99,,,0.21,meteohub,2013-02-25 08:12:00,
2013-02-25 03:17:00,29.7,14.2,30.12,NW,315,4.0,7.0,52,-99.99,,,0.21,meteohub,2013-02-25 08:17:00,
2013-02-25 03:22:00,29.7,14.2,30.12,NW,315,4.0,6.0,52,-99.99,,,0.21,meteohub,2013-02-25 08:22:00,
2013-02-25 03:27:00,29.7,14.2,30.12,NNW,338,4.0,6.0,52,-99.99,,,0.21,meteohub,2013-02-25 08:27:00,
2013-02-25 03:32:00,29.7,14.2,30.16,WNW,292,3.0,6.0,52,-99.99,,,0.21,meteohub,2013-02-25 08:32:00,
2013-02-25 03:37:00,29.8,14.4,30.15,NW,315,3.0,6.0,52,-99.99,,,0.21,meteohub,2013-02-25 08:37:00,
2013-02-25 03:42:00,29.8,14.0,30.15,NW,315,2.0,5.0,51,-99.99,,,0.21,meteohub,2013-02-25 08:42:00,
2013-02-25 03:47:00,30.0,14.2,30.15,NW,315,3.0,4.0,51,-99.99,,,0.21,meteohub,2013-02-25 08:47:00,
2013-02-25 03:52:00,30.0,14.2,30.15,NW,315,3.0,4.0,51,-99.99,,,0.21,meteohub,2013-02-25 08:52:00,
2013-02-25 03:57:00,30.0,14.2,30.15,ESE,112,2.0,4.0,51,-99.99,,,0.21,meteohub,2013-02-25 08:57:00,
2013-02-25 04:02:00,30.0,14.2,30.12,SSE,158,2.0,4.0,51,-99.99,,,0.21,meteohub,2013-02-25 09:02:00,
2013-02-25 04:07:00,30.2,13.8,30.12,NNW,338,3.0,4.0,50,-99.99,,,0.21,meteohub,2013-02-25 09:07:00,
2013-02-25 04:12:00,29.8,13.5,30.12,NW,315,2.0,4.0,50,-99.99,,,0.21,meteohub,2013-02-25 09:12:00,
2013-02-25 04:17:00,29.8,13.5,30.15,NW,315,2.0,4.0,50,-99.99,,,0.21,meteohub,2013-02-25 09:17:00,
2013-02-25 04:22:00,29.8,13.5,30.15,NNW,338,2.0,4.0,50,-99.99,,,0.21,meteohub,2013-02-25 09:22:00,
2013-02-25 04:27:00,29.8,13.5,30.15,NW,315,2.0,4.0,50,-99.99,,,0.21,meteohub,2013-02-25 09:27:00,
2013-02-25 04:32:00,30.0,13.6,30.15,NW,315,2.0,3.0,50,-99.99,,,0.21,meteohub,2013-02-25 09:32:00,
2013-02-25 04:37:00,30.2,13.8,30.15,NW,315,2.0,3.0,50,-99.99,,,0.21,meteohub,2013-02-25 09:37:00,
2013-02-25 04:42:00,30.2,13.8,30.15,NW,315,2.0,3.0,50,-99.99,,,0.21,meteohub,2013-02-25 09:42:00,
2013-02-25 04:47:00,30.2,13.3,30.12,WNW,292,0.0,3.0,49,-99.99,,,0.21,meteohub,2013-02-25 09:47:00,
2013-02-25 04:52:00,30.2,13.3,30.12,SSE,158,2.0,2.0,49,-99.99,,,0.21,meteohub,2013-02-25 09:52:00,
2013-02-25 04:57:00,29.8,13.1,30.12,SSE,158,0.0,4.0,49,-99.99,,,0.21,meteohub,2013-02-25 09:57:00,
2013-02-25 05:02:00,29.7,12.9,30.16,SSW,202,0.0,4.0,49,-99.99,,,0.21,meteohub,2013-02-25 10:02:00,
2013-02-25 05:07:00,29.5,13.1,30.16,SSE,158,3.0,3.0,50,-99.99,,,0.21,meteohub,2013-02-25 10:07:00,
2013-02-25 05:12:00,30.2,13.8,30.15,South,180,4.0,4.0,50,-99.99,,,0.21,meteohub,2013-02-25 10:12:00,
2013-02-25 05:17:00,30.9,13.1,30.14,SSE,158,6.0,6.0,47,-99.99,,,0.21,meteohub,2013-02-25 10:17:00,
2013-02-25 05:22:00,31.6,12.7,30.14,SSW,202,5.0,6.0,45,-99.99,,,0.21,meteohub,2013-02-25 10:22:00,
2013-02-25 05:27:00,31.8,12.9,30.14,SSE,158,4.0,6.0,45,-99.99,,,0.21,meteohub,2013-02-25 10:27:00,
2013-02-25 05:32:00,31.8,12.9,30.14,SSE,158,4.0,6.0,45,-99.99,,,0.21,meteohub,2013-02-25 10:32:00,
2013-02-25 05:37:00,31.6,12.7,30.14,SSE,158,5.0,6.0,45,-99.99,,,0.21,meteohub,2013-02-25 10:37:00,
2013-02-25 05:42:00,31.3,12.4,30.14,SSE,158,6.0,6.0,45,-99.99,,,0.21,meteohub,2013-02-25 10:42:00,
2013-02-25 05:47:00,31.3,12.4,30.14,SSE,158,7.0,7.0,45,-99.99,,,0.21,meteohub,2013-02-25 10:47:00,
2013-02-25 05:52:00,31.3,12.4,30.14,SSE,158,7.0,8.0,45,-99.99,,,0.21,meteohub,2013-02-25 10:52:00,
2013-02-25 05:57:00,31.1,12.7,30.14,SSE,158,9.0,9.0,46,-99.99,,,0.21,meteohub,2013-02-25 10:57:00,
2013-02-25 06:02:00,31.1,13.3,30.14,SSE,158,6.0,10.0,47,-99.99,,,0.21,meteohub,2013-02-25 11:02:00,
2013-02-25 06:07:00,30.9,13.1,30.14,SSE,158,7.0,10.0,47,-99.99,,,0.21,meteohub,2013-02-25 11:07:00,
2013-02-25 06:12:00,30.7,12.9,30.14,SSE,158,9.0,9.0,47,-99.99,,,0.21,meteohub,2013-02-25 11:12:00,
2013-02-25 06:17:00,30.4,13.1,30.15,SSE,158,10.0,11.0,48,-99.99,,,0.21,meteohub,2013-02-25 11:17:00,
2013-02-25 06:22:00,30.2,13.3,30.15,SSE,158,8.0,11.0,49,-99.99,,,0.21,meteohub,2013-02-25 11:22:00,
2013-02-25 06:27:00,30.0,13.6,30.15,SSE,158,9.0,11.0,50,-99.99,,,0.21,meteohub,2013-02-25 11:27:00,
2013-02-25 06:32:00,29.8,13.5,30.15,SSE,158,7.0,10.0,50,-99.99,,,0.21,meteohub,2013-02-25 11:32:00,
2013-02-25 06:37:00,29.5,13.1,30.16,SSE,158,9.0,10.0,50,-99.99,,,0.21,meteohub,2013-02-25 11:37:00,
2013-02-25 06:42:00,29.5,13.6,30.16,SSE,158,10.0,10.0,51,-99.99,,,0.21,meteohub,2013-02-25 11:42:00,
2013-02-25 06:47:00,29.3,13.5,30.16,SSE,158,8.0,10.0,51,-99.99,,,0.21,meteohub,2013-02-25 11:47:00,
2013-02-25 06:52:00,29.1,13.3,30.16,SSE,158,11.0,11.0,51,-99.99,,,0.21,meteohub,2013-02-25 11:52:00,
2013-02-25 06:57:00,28.9,13.5,30.16,SSE,158,11.0,15.0,52,-99.99,,,0.21,meteohub,2013-02-25 11:57:00,
2013-02-25 07:02:00,28.8,13.5,30.16,SSE,158,11.0,15.0,52,-99.99,,,0.21,meteohub,2013-02-25 12:02:00,
2013-02-25 07:07:00,28.6,13.3,30.17,SSE,158,10.0,15.0,52,-99.99,,,0.21,meteohub,2013-02-25 12:07:00,
2013-02-25 07:12:00,28.6,13.6,30.17,SSE,158,10.0,13.0,53,-99.99,,,0.21,meteohub,2013-02-25 12:12:00,
2013-02-25 07:17:00,28.4,13.5,30.20,SSE,158,9.0,13.0,53,-99.99,,,0.21,meteohub,2013-02-25 12:17:00,
2013-02-25 07:22:00,28.4,13.5,30.20,SSE,158,10.0,13.0,53,-99.99,,,0.21,meteohub,2013-02-25 12:22:00,
2013-02-25 07:27:00,28.4,13.5,30.20,South,180,8.0,13.0,53,-99.99,,,0.21,meteohub,2013-02-25 12:27:00,
2013-02-25 07:32:00,28.6,13.3,30.20,SSE,158,9.0,13.0,52,-99.99,,,0.21,meteohub,2013-02-25 12:32:00,
2013-02-25 07:37:00,28.6,13.3,30.20,SSE,158,10.0,12.0,52,-99.99,,,0.21,meteohub,2013-02-25 12:37:00,
2013-02-25 07:42:00,28.6,13.6,30.20,SE,135,11.0,12.0,53,-99.99,,,0.21,meteohub,2013-02-25 12:42:00,
2013-02-25 07:47:00,28.4,13.5,30.20,SSE,158,10.0,12.0,53,-99.99,,,0.21,meteohub,2013-02-25 12:47:00,
2013-02-25 07:52:00,28.4,13.5,30.20,SSE,158,8.0,12.0,53,-99.99,,,0.21,meteohub,2013-02-25 12:52:00,
2013-02-25 07:57:00,28.4,13.5,30.20,SSE,158,9.0,12.0,53,-99.99,,,0.21,meteohub,2013-02-25 12:57:00,
2013-02-25 08:02:00,28.2,13.8,30.20,SSE,158,9.0,12.0,54,-99.99,,,0.21,meteohub,2013-02-25 13:02:00,
2013-02-25 08:07:00,28.4,13.8,30.20,SSE,158,9.0,13.0,54,-99.99,,,0.21,meteohub,2013-02-25 13:07:00,
2013-02-25 08:12:00,28.4,13.8,30.20,SE,135,9.0,13.0,54,-99.99,,,0.21,meteohub,2013-02-25 13:12:00,
2013-02-25 08:17:00,28.4,13.8,30.20,SSE,158,6.0,13.0,54,-99.99,,,0.21,meteohub,2013-02-25 13:17:00,
2013-02-25 08:22:00,28.4,13.8,30.20,SSE,158,9.0,11.0,54,-99.99,,,0.21,meteohub,2013-02-25 13:22:00,
2013-02-25 08:27:00,28.6,14.0,30.20,SSE,158,9.0,11.0,54,-99.99,,,0.21,meteohub,2013-02-25 13:27:00,
2013-02-25 08:32:00,28.6,14.0,30.23,SSE,158,10.0,11.0,54,-99.99,,,0.21,meteohub,2013-02-25 13:32:00,
2013-02-25 08:37:00,28.6,14.0,30.23,ESE,112,11.0,13.0,54,-99.99,,,0.21,meteohub,2013-02-25 13:37:00,
2013-02-25 08:42:00,28.6,14.0,30.23,SSE,158,11.0,13.0,54,-99.99,,,0.21,meteohub,2013-02-25 13:42:00,
2013-02-25 08:48:00,28.6,14.0,30.23,SSE,158,10.0,13.0,54,-99.99,,,0.21,meteohub,2013-02-25 13:48:00,
2013-02-25 08:53:00,28.8,14.7,30.23,SSE,158,10.0,13.0,55,-99.99,,,0.21,meteohub,2013-02-25 13:53:00,
2013-02-25 08:58:00,28.8,14.7,30.23,SSE,158,11.0,13.0,55,-99.99,,,0.21,meteohub,2013-02-25 13:58:00,
2013-02-25 09:03:00,28.8,14.7,30.23,SE,135,11.0,13.0,55,-99.99,,,0.21,meteohub,2013-02-25 14:03:00,
2013-02-25 09:08:00,28.6,14.9,30.23,SSE,158,11.0,14.0,56,-99.99,,,0.21,meteohub,2013-02-25 14:08:00,
2013-02-25 09:14:00,28.6,14.9,30.23,SSE,158,11.0,15.0,56,-99.99,,,0.21,meteohub,2013-02-25 14:14:00,
2013-02-25 09:19:00,28.4,15.1,30.23,SSE,158,12.0,15.0,57,-99.99,,,0.21,meteohub,2013-02-25 14:19:00,
2013-02-25 09:24:00,28.4,15.6,30.23,SSE,158,11.0,14.0,58,-99.99,,,0.21,meteohub,2013-02-25 14:24:00,
2013-02-25 09:29:00,28.4,15.6,30.23,SSE,158,13.0,15.0,58,-99.99,,,0.21,meteohub,2013-02-25 14:29:00,
2013-02-25 09:34:00,28.4,15.6,30.23,SE,135,10.0,15.0,58,-99.99,,,0.21,meteohub,2013-02-25 14:34:00,
2013-02-25 09:39:00,28.4,16.0,30.23,SSE,158,13.0,15.0,59,-99.99,,,0.21,meteohub,2013-02-25 14:39:00,
2013-02-25 09:44:00,28.2,15.8,30.24,SSE,158,13.0,15.0,59,-99.99,,,0.21,meteohub,2013-02-25 14:44:00,
2013-02-25 09:49:00,28.0,15.6,30.24,SSE,158,15.0,18.0,59,-99.99,,,0.21,meteohub,2013-02-25 14:49:00,
2013-02-25 09:54:00,28.0,16.0,30.24,SSE,158,13.0,18.0,60,-99.99,,,0.21,meteohub,2013-02-25 14:54:00,
2013-02-25 09:59:00,28.0,16.0,30.24,SSE,158,14.0,18.0,60,-99.99,,,0.21,meteohub,2013-02-25 14:59:00,
2013-02-25 10:04:00,28.2,16.2,30.24,SSE,158,13.0,18.0,60,-99.99,,,0.21,meteohub,2013-02-25 15:04:00,
2013-02-25 10:09:00,28.4,16.3,30.23,SSE,158,13.0,18.0,60,-99.99,,,0.21,meteohub,2013-02-25 15:09:00,
2013-02-25 10:14:00,28.6,16.5,30.23,SSE,158,11.0,18.0,60,-99.99,,,0.21,meteohub,2013-02-25 15:14:00,
2013-02-25 10:19:00,28.9,16.5,30.23,SSE,158,13.0,17.0,59,-99.99,,,0.21,meteohub,2013-02-25 15:19:00,
2013-02-25 10:24:00,28.9,16.5,30.23,SSE,158,17.0,17.0,59,-99.99,,,0.21,meteohub,2013-02-25 15:24:00,
2013-02-25 10:29:00,28.8,15.8,30.23,SSE,158,10.0,17.0,58,-99.99,,,0.21,meteohub,2013-02-25 15:29:00,
2013-02-25 10:34:00,28.8,15.8,30.23,SSE,158,15.0,17.0,58,-99.99,,,0.21,meteohub,2013-02-25 15:34:00,
2013-02-25 10:39:00,28.8,15.8,30.23,SSE,158,13.0,17.0,58,-99.99,,,0.21,meteohub,2013-02-25 15:39:00,
2013-02-25 10:44:00,28.8,16.3,30.23,SSE,158,11.0,17.0,59,-99.99,,,0.21,meteohub,2013-02-25 15:44:00,
2013-02-25 10:49:00,28.8,15.8,30.23,SSW,202,12.0,15.0,58,-99.99,,,0.21,meteohub,2013-02-25 15:49:00,
2013-02-25 10:54:00,28.9,16.0,30.23,SSE,158,11.0,14.0,58,-99.99,,,0.21,meteohub,2013-02-25 15:54:00,
2013-02-25 10:59:00,29.3,16.3,30.23,SSE,158,11.0,15.0,58,-99.99,,,0.21,meteohub,2013-02-25 15:59:00,
2013-02-25 11:04:00,29.5,16.5,30.22,SSE,158,9.0,15.0,58,-99.99,,,0.21,meteohub,2013-02-25 16:04:00,
2013-02-25 11:09:00,29.8,16.9,30.22,SSE,158,11.0,15.0,58,-99.99,,,0.21,meteohub,2013-02-25 16:09:00,
2013-02-25 11:14:00,30.2,16.9,30.22,SSE,158,10.0,13.0,57,-99.99,,,0.21,meteohub,2013-02-25 16:14:00,
2013-02-25 11:19:00,30.4,16.5,30.22,SSE,158,11.0,13.0,56,-99.99,,,0.21,meteohub,2013-02-25 16:19:00,
2013-02-25 11:24:00,30.6,16.7,30.22,SSE,158,11.0,13.0,56,-99.99,,,0.21,meteohub,2013-02-25 16:24:00,
2013-02-25 11:29:00,30.9,17.1,30.21,SE,135,11.0,14.0,56,-99.99,,,0.21,meteohub,2013-02-25 16:29:00,
2013-02-25 11:34:00,31.1,17.2,30.21,SSE,158,9.0,14.0,56,-99.99,,,0.21,meteohub,2013-02-25 16:34:00,
2013-02-25 11:39:00,31.3,16.5,30.21,SSE,158,9.0,14.0,54,-99.99,,,0.21,meteohub,2013-02-25 16:39:00,
2013-02-25 11:44:00,31.6,17.4,30.21,SE,135,8.0,14.0,55,-99.99,,,0.21,meteohub,2013-02-25 16:44:00,
2013-02-25 11:50:00,32.2,18.0,30.20,SSE,158,8.0,14.0,55,-99.99,,,0.21,meteohub,2013-02-25 16:50:00,
2013-02-25 11:55:00,32.7,18.0,30.20,SSE,158,6.0,13.0,54,-99.99,,,0.21,meteohub,2013-02-25 16:55:00,
2013-02-25 12:00:00,32.7,17.6,30.20,SSE,158,8.0,13.0,53,-99.99,,,0.21,meteohub,2013-02-25 17:00:00,
2013-02-25 12:05:00,32.7,17.6,30.20,SSE,158,8.0,12.0,53,-99.99,,,0.21,meteohub,2013-02-25 17:05:00,
2013-02-25 12:10:00,32.9,17.8,30.19,SSE,158,8.0,13.0,53,-99.99,,,0.21,meteohub,2013-02-25 17:10:00,
2013-02-25 12:15:00,33.1,17.4,30.16,SE,135,11.0,13.0,52,-99.99,,,0.21,meteohub,2013-02-25 17:15:00,
2013-02-25 12:20:00,32.9,17.2,30.16,SSE,158,8.0,13.0,52,-99.99,,,0.21,meteohub,2013-02-25 17:20:00,
2013-02-25 12:25:00,33.1,17.4,30.16,SSE,158,9.0,13.0,52,-99.99,,,0.21,meteohub,2013-02-25 17:25:00,
2013-02-25 12:30:00,33.3,18.0,30.16,SSE,158,7.0,13.0,53,-99.99,,,0.21,meteohub,2013-02-25 17:30:00,
2013-02-25 12:35:00,33.3,17.6,30.16,SSE,158,8.0,13.0,52,-99.99,,,0.21,meteohub,2013-02-25 17:35:00,
2013-02-25 12:40:00,33.3,17.6,30.16,SSE,158,10.0,13.0,52,-99.99,,,0.21,meteohub,2013-02-25 17:40:00,
2013-02-25 12:45:00,33.3,17.6,30.16,SSE,158,12.0,15.0,52,-99.99,,,0.21,meteohub,2013-02-25 17:45:00,
2013-02-25 12:50:00,33.1,17.4,30.16,SSE,158,9.0,15.0,52,-99.99,,,0.21,meteohub,2013-02-25 17:50:00,
2013-02-25 12:55:00,33.1,17.4,30.16,SSE,158,14.0,15.0,52,-99.99,,,0.21,meteohub,2013-02-25 17:55:00,
2013-02-25 13:00:00,33.1,17.4,30.16,SSE,158,11.0,15.0,52,-99.99,,,0.21,meteohub,2013-02-25 18:00:00,
2013-02-25 13:05:00,33.3,18.0,30.16,SSE,158,11.0,16.0,53,-99.99,,,0.21,meteohub,2013-02-25 18:05:00,
2013-02-25 13:10:00,33.6,18.3,30.16,SSE,158,12.0,16.0,53,-99.99,,,0.21,meteohub,2013-02-25 18:10:00,
2013-02-25 13:15:00,33.6,18.0,30.16,SSE,158,10.0,16.0,52,-99.99,,,0.21,meteohub,2013-02-25 18:15:00,
2013-02-25 13:20:00,33.8,18.1,30.15,SSE,158,15.0,15.0,52,-99.99,,,0.21,meteohub,2013-02-25 18:20:00,
2013-02-25 13:25:00,34.0,17.8,30.15,SSE,158,10.0,15.0,51,-99.99,,,0.21,meteohub,2013-02-25 18:25:00,
2013-02-25 13:30:00,34.0,17.8,30.12,SSE,158,11.0,15.0,51,-99.99,,,0.21,meteohub,2013-02-25 18:30:00,
2013-02-25 13:35:00,33.6,17.4,30.12,SSE,158,13.0,14.0,51,-99.99,,,0.21,meteohub,2013-02-25 18:35:00,
2013-02-25 13:40:00,33.3,17.6,30.12,SSE,158,13.0,14.0,52,-99.99,,,0.21,meteohub,2013-02-25 18:40:00,
2013-02-25 13:45:00,33.3,17.6,30.16,SSE,158,10.0,15.0,52,-99.99,,,0.21,meteohub,2013-02-25 18:45:00,
2013-02-25 13:50:00,33.1,17.4,30.16,SSE,158,15.0,16.0,52,-99.99,,,0.21,meteohub,2013-02-25 18:50:00,
2013-02-25 13:55:00,32.9,17.8,30.16,SSE,158,11.0,16.0,53,-99.99,,,0.21,meteohub,2013-02-25 18:55:00,
2013-02-25 14:00:00,33.1,17.8,30.16,SSE,158,15.0,16.0,53,-99.99,,,0.21,meteohub,2013-02-25 19:00:00,
2013-02-25 14:06:00,33.3,18.0,30.16,SSE,158,15.0,15.0,53,-99.99,,,0.21,meteohub,2013-02-25 19:06:00,
2013-02-25 14:11:00,33.4,18.1,30.16,SSE,158,10.0,15.0,53,-99.99,,,0.21,meteohub,2013-02-25 19:11:00,
2013-02-25 14:16:00,33.6,18.3,30.16,SSE,158,11.0,16.0,53,-99.99,,,0.21,meteohub,2013-02-25 19:16:00,
2013-02-25 14:21:00,34.0,18.3,30.15,SSE,158,13.0,17.0,52,-99.99,,,0.21,meteohub,2013-02-25 19:21:00,
2013-02-25 14:26:00,34.0,18.3,30.15,SSE,158,13.0,17.0,52,-99.99,,,0.21,meteohub,2013-02-25 19:26:00,
2013-02-25 14:31:00,34.0,18.3,30.12,SSE,158,11.0,16.0,52,-99.99,,,0.21,meteohub,2013-02-25 19:31:00,
2013-02-25 14:36:00,34.3,18.5,30.12,SSE,158,10.0,13.0,52,-99.99,,,0.21,meteohub,2013-02-25 19:36:00,
2013-02-25 14:41:00,34.2,18.0,30.12,SSE,158,11.0,14.0,51,-99.99,,,0.21,meteohub,2013-02-25 19:41:00,
2013-02-25 14:46:00,34.3,18.1,30.15,SSE,158,12.0,15.0,51,-99.99,,,0.21,meteohub,2013-02-25 19:46:00,
2013-02-25 14:51:00,34.7,18.5,30.14,SSE,158,11.0,15.0,51,-99.99,,,0.21,meteohub,2013-02-25 19:51:00,
2013-02-25 14:56:00,34.9,18.7,30.14,SSE,158,10.0,15.0,51,-99.99,,,0.21,meteohub,2013-02-25 19:56:00,
2013-02-25 15:01:00,34.9,18.7,30.14,SE,135,11.0,15.0,51,-99.99,,,0.21,meteohub,2013-02-25 20:01:00,
2013-02-25 15:06:00,35.2,19.0,30.14,SSE,158,13.0,15.0,51,-99.99,,,0.21,meteohub,2013-02-25 20:06:00,
2013-02-25 15:11:00,35.8,19.0,30.14,SSE,158,13.0,15.0,50,-99.99,,,0.21,meteohub,2013-02-25 20:11:00,
2013-02-25 15:16:00,36.1,19.4,30.13,SSE,158,10.0,13.0,50,-99.99,,,0.21,meteohub,2013-02-25 20:16:00,
2013-02-25 15:21:00,36.1,18.9,30.13,ESE,112,8.0,15.0,49,-99.99,,,0.21,meteohub,2013-02-25 20:21:00,
2013-02-25 15:26:00,36.3,19.0,30.13,SSE,158,6.0,15.0,49,-99.99,,,0.21,meteohub,2013-02-25 20:26:00,
2013-02-25 15:31:00,36.3,19.0,30.10,SSE,158,10.0,15.0,49,-99.99,,,0.21,meteohub,2013-02-25 20:31:00,
2013-02-25 15:36:00,36.7,18.9,30.09,SSE,158,11.0,13.0,48,-99.99,,,0.21,meteohub,2013-02-25 20:36:00,
2013-02-25 15:41:00,37.6,19.8,30.09,SSE,158,10.0,13.0,48,-99.99,,,0.21,meteohub,2013-02-25 20:41:00,
2013-02-25 15:46:00,37.8,18.3,30.09,SSE,158,11.0,13.0,45,-99.99,,,0.21,meteohub,2013-02-25 20:46:00,
2013-02-25 15:51:00,37.4,18.1,30.09,SSE,158,13.0,16.0,45,-99.99,,,0.21,meteohub,2013-02-25 20:51:00,
2013-02-25 15:56:00,37.2,18.0,30.09,SSE,158,10.0,16.0,45,-99.99,,,0.21,meteohub,2013-02-25 20:56:00,
2013-02-25 16:01:00,37.2,18.0,30.09,SSE,158,10.0,16.0,45,-99.99,,,0.21,meteohub,2013-02-25 21:01:00,
2013-02-25 16:06:00,37.0,17.8,30.09,SSE,158,12.0,15.0,45,-99.99,,,0.21,meteohub,2013-02-25 21:06:00,
2013-02-25 16:11:00,37.2,18.3,30.09,SSE,158,10.0,15.0,46,-99.99,,,0.21,meteohub,2013-02-25 21:11:00,
2013-02-25 16:16:00,37.2,18.0,30.09,SSE,158,13.0,15.0,45,-99.99,,,0.21,meteohub,2013-02-25 21:16:00,
2013-02-25 16:21:00,37.2,18.0,30.09,SSE,158,9.0,15.0,45,-99.99,,,0.21,meteohub,2013-02-25 21:21:00,
2013-02-25 16:26:00,37.2,18.0,30.09,South,180,13.0,16.0,45,-99.99,,,0.21,meteohub,2013-02-25 21:26:00,
2013-02-25 16:31:00,37.0,17.2,30.09,SSE,158,10.0,16.0,44,-99.99,,,0.21,meteohub,2013-02-25 21:31:00,
2013-02-25 16:36:00,36.9,17.6,30.09,SSE,158,10.0,16.0,45,-99.99,,,0.21,meteohub,2013-02-25 21:36:00,
2013-02-25 16:41:00,36.5,16.7,30.10,SSW,202,12.0,16.0,44,-99.99,,,0.21,meteohub,2013-02-25 21:41:00,
2013-02-25 16:46:00,36.0,17.2,30.10,SSE,158,10.0,16.0,46,-99.99,,,0.21,meteohub,2013-02-25 21:46:00,
2013-02-25 16:52:00,35.8,17.1,30.10,SSE,158,11.0,15.0,46,-99.99,,,0.21,meteohub,2013-02-25 21:52:00,
2013-02-25 16:57:00,35.6,17.4,30.10,SSE,158,8.0,15.0,47,-99.99,,,0.21,meteohub,2013-02-25 21:57:00,
2013-02-25 17:02:00,35.4,17.2,30.11,SSE,158,10.0,15.0,47,-99.99,,,0.21,meteohub,2013-02-25 22:02:00,
2013-02-25 17:07:00,35.4,17.8,30.11,SSE,158,11.0,14.0,48,-99.99,,,0.21,meteohub,2013-02-25 22:07:00,
2013-02-25 17:12:00,35.1,17.4,30.11,SSE,158,10.0,13.0,48,-99.99,,,0.21,meteohub,2013-02-25 22:12:00,
2013-02-25 17:17:00,35.1,18.3,30.11,SSE,158,10.0,13.0,50,-99.99,,,0.21,meteohub,2013-02-25 22:17:00,
2013-02-25 17:22:00,34.9,17.8,30.11,SSE,158,8.0,13.0,49,-99.99,,,0.21,meteohub,2013-02-25 22:22:00,
2013-02-25 17:27:00,34.7,18.0,30.11,SSE,158,12.0,13.0,50,-99.99,,,0.21,meteohub,2013-02-25 22:27:00,
2013-02-25 17:32:00,34.5,17.8,30.11,SSE,158,9.0,13.0,50,-99.99,,,0.21,meteohub,2013-02-25 22:32:00,
2013-02-25 17:37:00,34.3,17.6,30.12,SE,135,11.0,12.0,50,-99.99,,,0.21,meteohub,2013-02-25 22:37:00,
2013-02-25 17:42:00,34.3,17.6,30.12,SSE,158,9.0,12.0,50,-99.99,,,0.21,meteohub,2013-02-25 22:42:00,
2013-02-25 17:47:00,34.0,17.4,30.12,SSE,158,11.0,11.0,50,-99.99,,,0.21,meteohub,2013-02-25 22:47:00,
2013-02-25 17:52:00,33.6,17.4,30.12,SSE,158,11.0,13.0,51,-99.99,,,0.21,meteohub,2013-02-25 22:52:00,
2013-02-25 17:57:00,33.3,17.1,30.12,SSE,158,12.0,15.0,51,-99.99,,,0.21,meteohub,2013-02-25 22:57:00,
2013-02-25 18:02:00,33.1,17.1,30.13,SSE,158,13.0,15.0,51,-99.99,,,0.21,meteohub,2013-02-25 23:02:00,
2013-02-25 18:07:00,32.9,17.2,30.13,SSE,158,10.0,15.0,52,-99.99,,,0.21,meteohub,2013-02-25 23:07:00,
2013-02-25 18:12:00,32.7,17.1,30.13,SSE,158,9.0,13.0,52,-99.99,,,0.21,meteohub,2013-02-25 23:12:00,
2013-02-25 18:17:00,32.5,17.4,30.13,SSE,158,10.0,13.0,53,-99.99,,,0.21,meteohub,2013-02-25 23:17:00,
2013-02-25 18:22:00,32.4,17.6,30.13,SSE,158,10.0,15.0,54,-99.99,,,0.21,meteohub,2013-02-25 23:22:00,
2013-02-25 18:27:00,32.0,17.2,30.14,SSE,158,9.0,15.0,54,-99.99,,,0.21,meteohub,2013-02-25 23:27:00,
2013-02-25 18:32:00,31.8,17.6,30.14,SSE,158,10.0,13.0,55,-99.99,,,0.21,meteohub,2013-02-25 23:32:00,
2013-02-25 18:37:00,31.6,17.4,30.14,SSE,158,10.0,13.0,55,-99.99,,,0.21,meteohub,2013-02-25 23:37:00,
2013-02-25 18:42:00,31.3,17.4,30.14,SSE,158,9.0,14.0,56,-99.99,,,0.21,meteohub,2013-02-25 23:42:00,
2013-02-25 18:47:00,31.3,17.4,30.14,SSE,158,10.0,14.0,56,-99.99,,,0.21,meteohub,2013-02-25 23:47:00,
2013-02-25 18:52:00,31.3,17.4,30.14,SSE,158,10.0,14.0,56,-99.99,,,0.21,meteohub,2013-02-25 23:52:00,
2013-02-25 18:57:00,31.3,17.4,30.14,SSE,158,10.0,15.0,56,-99.99,,,0.21,meteohub,2013-02-25 23:57:00,
2013-02-25 19:02:00,31.1,17.6,30.14,SSE,158,9.0,15.0,57,-99.99,,,0.21,meteohub,2013-02-26 00:02:00,
2013-02-25 19:07:00,31.1,17.6,30.14,SSE,158,8.0,15.0,57,-99.99,,,0.21,meteohub,2013-02-26 00:07:00,
2013-02-25 19:12:00,31.1,17.6,30.14,SSE,158,9.0,11.0,57,-99.99,,,0.21,meteohub,2013-02-26 00:12:00,
2013-02-25 19:17:00,31.1,18.1,30.14,SSE,158,10.0,10.0,58,-99.99,,,0.21,meteohub,2013-02-26 00:17:00,
2013-02-25 19:22:00,30.9,18.0,30.14,SSE,158,9.0,11.0,58,-99.99,,,0.21,meteohub,2013-02-26 00:22:00,
2013-02-25 19:27:00,30.7,18.1,30.14,SSE,158,9.0,11.0,59,-99.99,,,0.21,meteohub,2013-02-26 00:27:00,
2013-02-25 19:32:00,30.6,18.3,30.15,SSE,158,7.0,13.0,60,-99.99,,,0.21,meteohub,2013-02-26 00:32:00,
2013-02-25 19:37:00,30.4,18.1,30.15,SSE,158,6.0,13.0,60,-99.99,,,0.21,meteohub,2013-02-26 00:37:00,
2013-02-25 19:42:00,30.4,18.1,30.15,SSE,158,7.0,13.0,60,-99.99,,,0.21,meteohub,2013-02-26 00:42:00,
2013-02-25 19:47:00,30.2,18.3,30.15,SSE,158,8.0,11.0,61,-99.99,,,0.21,meteohub,2013-02-26 00:47:00,
2013-02-25 19:52:00,30.0,18.7,30.15,SSE,158,6.0,11.0,62,-99.99,,,0.21,meteohub,2013-02-26 00:52:00,
2013-02-25 19:57:00,29.8,18.5,30.15,SSE,158,10.0,11.0,62,-99.99,,,0.21,meteohub,2013-02-26 00:57:00,
2013-02-25 20:02:00,29.8,18.9,30.15,SSE,158,9.0,11.0,63,-99.99,,,0.21,meteohub,2013-02-26 01:02:00,
2013-02-25 20:07:00,29.7,18.7,30.16,SSE,158,10.0,11.0,63,-99.99,,,0.21,meteohub,2013-02-26 01:07:00,
2013-02-25 20:12:00,29.7,19.0,30.16,SSE,158,11.0,13.0,64,-99.99,,,0.21,meteohub,2013-02-26 01:12:00,
2013-02-25 20:17:00,29.5,18.9,30.16,SSE,158,7.0,13.0,64,-99.99,,,0.21,meteohub,2013-02-26 01:17:00,
2013-02-25 20:22:00,29.3,19.0,30.16,SSE,158,10.0,13.0,65,-99.99,,,0.21,meteohub,2013-02-26 01:22:00,
2013-02-25 20:27:00,29.3,19.0,30.16,SSE,158,10.0,13.0,65,-99.99,,,0.21,meteohub,2013-02-26 01:27:00,
2013-02-25 20:32:00,29.3,19.4,30.16,SSE,158,9.0,13.0,66,-99.99,,,0.21,meteohub,2013-02-26 01:32:00,
2013-02-25 20:37:00,29.3,19.4,30.16,SSE,158,11.0,13.0,66,-99.99,,,0.21,meteohub,2013-02-26 01:37:00,
2013-02-25 20:42:00,29.1,19.6,30.16,SSE,158,12.0,13.0,67,-99.99,,,0.21,meteohub,2013-02-26 01:42:00,
2013-02-25 20:47:00,29.1,19.6,30.16,SSE,158,10.0,14.0,67,-99.99,,,0.21,meteohub,2013-02-26 01:47:00,
2013-02-25 20:52:00,28.9,19.4,30.16,SSE,158,11.0,14.0,67,-99.99,,,0.21,meteohub,2013-02-26 01:52:00,
2013-02-25 20:57:00,28.8,19.6,30.16,SE,135,9.0,14.0,68,-99.99,,,0.21,meteohub,2013-02-26 01:57:00,
2013-02-25 21:02:00,28.8,19.2,30.16,SSE,158,8.0,14.0,67,-99.99,,,0.21,meteohub,2013-02-26 02:02:00,
2013-02-25 21:07:00,28.8,19.6,30.16,SSE,158,10.0,13.0,68,-99.99,,,0.21,meteohub,2013-02-26 02:07:00,
2013-02-25 21:12:00,28.6,19.4,30.17,SSE,158,10.0,15.0,68,-99.99,,,0.21,meteohub,2013-02-26 02:12:00,
2013-02-25 21:17:00,28.6,19.8,30.17,SSE,158,10.0,15.0,69,-99.99,,,0.21,meteohub,2013-02-26 02:17:00,
2013-02-25 21:22:00,28.6,19.8,30.17,SSE,158,11.0,15.0,69,-99.99,,,0.21,meteohub,2013-02-26 02:22:00,
2013-02-25 21:27:00,28.4,19.6,30.17,SSE,158,10.0,16.0,69,-99.99,,,0.21,meteohub,2013-02-26 02:27:00,
2013-02-25 21:32:00,28.4,19.9,30.17,SSE,158,11.0,16.0,70,-99.99,,,0.21,meteohub,2013-02-26 02:32:00,
2013-02-25 21:37:00,28.2,19.8,30.17,SSE,158,11.0,16.0,70,-99.99,,,0.21,meteohub,2013-02-26 02:37:00,
2013-02-25 21:42:00,28.2,19.8,30.17,SSE,158,12.0,16.0,70,-99.99,,,0.21,meteohub,2013-02-26 02:42:00,
2013-02-25 21:47:00,28.0,19.6,30.17,SSE,158,10.0,15.0,70,-99.99,,,0.21,meteohub,2013-02-26 02:47:00,
2013-02-25 21:52:00,28.0,19.6,30.17,SSE,158,10.0,15.0,70,-99.99,,,0.21,meteohub,2013-02-26 02:52:00,
2013-02-25 21:57:00,27.9,19.4,30.17,SSE,158,10.0,15.0,70,-99.99,,,0.21,meteohub,2013-02-26 02:57:00,
2013-02-25 22:02:00,27.9,19.0,30.20,SSE,158,12.0,15.0,69,-99.99,,,0.21,meteohub,2013-02-26 03:02:00,
2013-02-25 22:07:00,27.9,19.0,30.20,SSE,158,12.0,17.0,69,-99.99,,,0.21,meteohub,2013-02-26 03:07:00,
2013-02-25 22:12:00,27.9,19.0,30.20,SSE,158,10.0,17.0,69,-99.99,,,0.21,meteohub,2013-02-26 03:12:00,
2013-02-25 22:17:00,27.7,18.9,30.21,SSE,158,11.0,17.0,69,-99.99,,,0.21,meteohub,2013-02-26 03:17:00,
2013-02-25 22:22:00,27.7,18.9,30.21,SSE,158,11.0,17.0,69,-99.99,,,0.21,meteohub,2013-02-26 03:22:00,
2013-02-25 22:27:00,27.5,18.7,30.21,SSE,158,11.0,15.0,69,-99.99,,,0.21,meteohub,2013-02-26 03:27:00,
2013-02-25 22:32:00,27.5,18.7,30.21,SSE,158,13.0,15.0,69,-99.99,,,0.21,meteohub,2013-02-26 03:32:00,
2013-02-25 22:37:00,27.5,18.3,30.21,SSE,158,10.0,15.0,68,-99.99,,,0.21,meteohub,2013-02-26 03:37:00,
2013-02-25 22:42:00,27.3,18.1,30.21,SE,135,14.0,16.0,68,-99.99,,,0.21,meteohub,2013-02-26 03:42:00,
2013-02-25 22:47:00,27.3,18.1,30.18,SSE,158,10.0,16.0,68,-99.99,,,0.21,meteohub,2013-02-26 03:47:00,
2013-02-25 22:52:00,27.3,18.1,30.18,SSE,158,9.0,16.0,68,-99.99,,,0.21,meteohub,2013-02-26 03:52:00,
2013-02-25 22:57:00,27.3,17.8,30.18,SSE,158,8.0,14.0,67,-99.99,,,0.21,meteohub,2013-02-26 03:57:00,
2013-02-25 23:02:00,27.1,17.6,30.18,SSE,158,10.0,13.0,67,-99.99,,,0.21,meteohub,2013-02-26 04:02:00,
2013-02-25 23:08:00,27.1,17.6,30.18,SSE,158,11.0,13.0,67,-99.99,,,0.21,meteohub,2013-02-26 04:08:00,
2013-02-25 23:13:00,27.1,17.2,30.18,SSW,202,13.0,18.0,66,-99.99,,,0.21,meteohub,2013-02-26 04:13:00,
2013-02-25 23:18:00,27.1,17.2,30.18,SSE,158,15.0,18.0,66,-99.99,,,0.21,meteohub,2013-02-26 04:18:00,
2013-02-25 23:23:00,27.0,17.1,30.18,SSE,158,12.0,18.0,66,-99.99,,,0.21,meteohub,2013-02-26 04:23:00,
2013-02-25 23:28:00,27.0,17.1,30.18,SSE,158,11.0,15.0,66,-99.99,,,0.21,meteohub,2013-02-26 04:28:00,
2013-02-25 23:33:00,27.0,16.7,30.18,SSE,158,11.0,15.0,65,-99.99,,,0.21,meteohub,2013-02-26 04:33:00,
2013-02-25 23:38:00,27.0,16.5,30.18,SSW,202,10.0,15.0,64,-99.99,,,0.21,meteohub,2013-02-26 04:38:00,
2013-02-25 23:43:00,26.8,16.3,30.18,SSE,158,11.0,15.0,64,-99.99,,,0.21,meteohub,2013-02-26 04:43:00,
2013-02-25 23:48:00,26.8,16.3,30.18,SSE,158,11.0,15.0,64,-99.99,,,0.21,meteohub,2013-02-26 04:48:00,
2013-02-25 23:53:00,26.8,16.7,30.18,SSE,158,13.0,15.0,65,-99.99,,,0.21,meteohub,2013-02-26 04:53:00,
2013-02-25 23:58:00,26.8,16.3,30.18,SSE,158,8.0,15.0,64,-99.99,,,0.21,meteohub,2013-02-26 04:58:00,